Location: Bald Rock
(37.3738°N, 119.9354°W)
Time: 22:44:09
(UTC+00:00)

ARGOS - Pass Details

Date: 08 September 2024
Orbit: 818 x 834 km, 98.4° (Epoch: 12 October)

Event Time Altitude Azimuth Distance (km) Brightness Sun altitude
Rises 12:50:59 0° 11° (NNE) 3,355 6.7 -9.7°
Reaches altitude 10° 12:53:20 10° 11° (N) 2,419 5.9 -9.3°
Maximum altitude 12:58:41 83° 285° (WNW) 830 3.1 -8.2°
Drops below altitude 10° 13:04:01 10° 197° (SSW) 2,407 5.3 -7.2°
Sets 13:06:21 0° 197° (SSW) 3,337 6.0 -6.7°
